Zurück zum Katalog

CZ-4 DEB

AktivSSO
NORAD 26125·DEBRIS·🇨🇳 China

Gestartet Oct 14, 1999 von Taiyuan Satellite Launch Center

Loading…

Nächste Überflüge (nächste 24 Stunden)

TLE

AktuellSource: Space-Track

Epoche: Sep 14, 2026, 02:20 UTC

1 26125U 99057M   26257.09734611  .00000152  00000-0  83831-4 0  9994
2 26125  99.2107 298.0096 0235945  34.2208 352.5758 14.12373575355340

Verfolge CZ-4 DEB in Echtzeit mit AllMySat

Download on the App Store